Time,TemperatureF,DewpointF,PressureIn,WindDirection,WindDirectionDegrees,WindSpeedMPH,WindSpeedGustMPH,Humidity,HourlyPrecipIn,Conditions,Clouds,dailyrainin,SoftwareType,DateUTC
2013-09-25 00:04:00,58.0,-99.9,29.87,NNE,25,7.0,-999.0,-999,-99.99,,,-99.99,,2013-09-25 04:04:00,
2013-09-25 00:14:00,58.0,-99.9,29.87,NNE,25,7.0,-999.0,-999,-99.99,,,-99.99,,2013-09-25 04:14:00,
2013-09-25 08:12:00,56.0,-99.9,29.85,NNW,344,8.0,-999.0,-999,-99.99,,,-99.99,,2013-09-25 12:12:00,
2013-09-25 08:22:00,56.0,-99.9,29.85,North,355,8.0,-999.0,-999,-99.99,,,-99.99,,2013-09-25 12:22:00,
2013-09-25 08:32:00,56.0,-99.9,29.85,North,355,8.0,-999.0,-999,-99.99,,,-99.99,,2013-09-25 12:32:00,
2013-09-25 08:52:00,57.0,-99.9,29.86,NNE,19,8.0,-999.0,-999,-99.99,,,-99.99,,2013-09-25 12:52:00,
2013-09-25 09:02:00,57.0,-99.9,29.86,NNE,19,8.0,-999.0,-999,-99.99,,,-99.99,,2013-09-25 13:02:00,
2013-09-25 09:22:00,59.0,-99.9,29.86,NNE,20,9.0,-999.0,-999,-99.99,,,-99.99,,2013-09-25 13:22:00,
2013-09-25 09:32:00,59.0,-99.9,29.86,NNE,20,9.0,-999.0,-999,-99.99,,,-99.99,,2013-09-25 13:32:00,
2013-09-25 09:52:00,61.0,-99.9,29.86,North,6,11.0,-999.0,-999,-99.99,,,-99.99,,2013-09-25 13:52:00,
2013-09-25 10:02:00,61.0,-99.9,29.86,North,6,11.0,-999.0,-999,-99.99,,,-99.99,,2013-09-25 14:02:00,
2013-09-25 10:22:00,62.0,-99.9,29.86,NNE,26,11.0,-999.0,-999,-99.99,,,-99.99,,2013-09-25 14:22:00,
2013-09-25 10:32:00,62.0,-99.9,29.86,NNE,26,11.0,-999.0,-999,-99.99,,,-99.99,,2013-09-25 14:32:00,
2013-09-25 10:52:00,62.0,-99.9,29.86,North,3,11.0,-999.0,-999,-99.99,,,-99.99,,2013-09-25 14:52:00,
2013-09-25 11:02:00,62.0,-99.9,29.86,North,3,11.0,-999.0,-999,-99.99,,,-99.99,,2013-09-25 15:02:00,
2013-09-25 11:22:00,63.0,-99.9,29.87,NE,52,10.0,-999.0,-999,-99.99,,,-99.99,,2013-09-25 15:22:00,
2013-09-25 11:33:00,63.0,-99.9,29.87,NE,52,10.0,-999.0,-999,-99.99,,,-99.99,,2013-09-25 15:33:00,
2013-09-25 11:44:00,63.0,-99.9,29.87,NE,52,10.0,-999.0,-999,-99.99,,,-99.99,,2013-09-25 15:44:00,
2013-09-25 11:54:00,63.0,-99.9,29.87,NNE,29,12.0,-999.0,-999,-99.99,,,-99.99,,2013-09-25 15:54:00,
2013-09-25 12:03:00,63.0,-99.9,29.87,NNE,29,12.0,-999.0,-999,-99.99,,,-99.99,,2013-09-25 16:03:00,
2013-09-25 12:13:00,63.0,-99.9,29.87,NNE,29,12.0,-999.0,-999,-99.99,,,-99.99,,2013-09-25 16:13:00,
2013-09-25 12:23:00,63.0,-99.9,29.86,NE,54,8.0,-999.0,-999,-99.99,,,-99.99,,2013-09-25 16:23:00,
2013-09-25 12:33:00,63.0,-99.9,29.86,NE,54,8.0,-999.0,-999,-99.99,,,-99.99,,2013-09-25 16:33:00,
2013-09-25 12:43:00,63.0,-99.9,29.86,NE,54,8.0,-999.0,-999,-99.99,,,-99.99,,2013-09-25 16:43:00,
2013-09-25 12:53:00,64.0,-99.9,29.86,NNE,19,8.0,-999.0,-999,-99.99,,,-99.99,,2013-09-25 16:53:00,
2013-09-25 13:03:00,64.0,-99.9,29.86,NNE,19,8.0,-999.0,-999,-99.99,,,-99.99,,2013-09-25 17:03:00,
2013-09-25 13:24:00,65.0,-99.9,29.86,NNE,14,9.0,-999.0,-999,-99.99,,,-99.99,,2013-09-25 17:24:00,
2013-09-25 13:34:00,65.0,-99.9,29.86,NNE,14,9.0,-999.0,-999,-99.99,,,-99.99,,2013-09-25 17:34:00,
2013-09-25 13:52:00,65.0,-99.9,29.85,NNE,13,7.0,-999.0,-999,-99.99,,,-99.99,,2013-09-25 17:52:00,
2013-09-25 14:02:00,65.0,-99.9,29.85,NNE,13,7.0,-999.0,-999,-99.99,,,-99.99,,2013-09-25 18:02:00,
2013-09-25 14:22:00,66.0,-99.9,29.85,SSE,167,9.0,-999.0,-999,-99.99,,,-99.99,,2013-09-25 18:22:00,
2013-09-25 14:32:00,66.0,-99.9,29.85,SSE,167,9.0,-999.0,-999,-99.99,,,-99.99,,2013-09-25 18:32:00,
2013-09-25 14:52:00,66.0,-99.9,29.85,SSE,156,13.0,-999.0,-999,-99.99,,,-99.99,,2013-09-25 18:52:00,
2013-09-25 15:02:00,66.0,-99.9,29.85,SSE,156,13.0,-999.0,-999,-99.99,,,-99.99,,2013-09-25 19:02:00,
2013-09-25 15:22:00,64.0,-99.9,29.85,SE,136,13.0,-999.0,-999,-99.99,,,-99.99,,2013-09-25 19:22:00,
2013-09-25 15:32:00,64.0,-99.9,29.85,SE,136,13.0,-999.0,-999,-99.99,,,-99.99,,2013-09-25 19:32:00,
2013-09-25 15:53:00,64.0,-99.9,29.84,SE,129,11.0,-999.0,-999,-99.99,,,-99.99,,2013-09-25 19:53:00,
2013-09-25 16:03:00,64.0,-99.9,29.84,SE,129,11.0,-999.0,-999,-99.99,,,-99.99,,2013-09-25 20:03:00,
2013-09-25 16:23:00,64.0,-99.9,29.85,SE,133,8.0,-999.0,-999,-99.99,,,-99.99,,2013-09-25 20:23:00,
2013-09-25 16:32:00,64.0,-99.9,29.85,SE,133,8.0,-999.0,-999,-99.99,,,-99.99,,2013-09-25 20:32:00,
2013-09-25 16:52:00,63.0,-99.9,29.85,SE,138,15.0,-999.0,-999,-99.99,,,-99.99,,2013-09-25 20:52:00,
2013-09-25 17:02:00,63.0,-99.9,29.85,SE,138,15.0,-999.0,-999,-99.99,,,-99.99,,2013-09-25 21:02:00,
2013-09-25 17:22:00,63.0,-99.9,29.86,East,86,13.0,-999.0,-999,-99.99,,,-99.99,,2013-09-25 21:22:00,
2013-09-25 17:34:00,63.0,-99.9,29.86,East,86,13.0,-999.0,-999,-99.99,,,-99.99,,2013-09-25 21:34:00,
2013-09-25 17:45:00,63.0,-99.9,29.86,East,86,13.0,-999.0,-999,-99.99,,,-99.99,,2013-09-25 21:45:00,
2013-09-25 17:55:00,62.0,-99.9,29.86,SE,136,11.0,-999.0,-999,-99.99,,,-99.99,,2013-09-25 21:55:00,
2013-09-25 18:04:00,62.0,-99.9,29.86,SE,136,11.0,-999.0,-999,-99.99,,,-99.99,,2013-09-25 22:04:00,
2013-09-25 18:23:00,61.0,-99.9,29.87,SE,139,8.0,-999.0,-999,-99.99,,,-99.99,,2013-09-25 22:23:00,
2013-09-25 18:33:00,61.0,-99.9,29.87,SE,139,8.0,-999.0,-999,-99.99,,,-99.99,,2013-09-25 22:33:00,
2013-09-25 18:53:00,61.0,-99.9,29.88,East,83,5.0,-999.0,-999,-99.99,,,-99.99,,2013-09-25 22:53:00,
2013-09-25 19:03:00,61.0,-99.9,29.88,East,83,5.0,-999.0,-999,-99.99,,,-99.99,,2013-09-25 23:03:00,
2013-09-25 19:12:00,61.0,-99.9,29.88,East,83,5.0,-999.0,-999,-99.99,,,-99.99,,2013-09-25 23:12:00,
2013-09-25 19:23:00,60.0,-99.9,29.89,East,86,6.0,-999.0,-999,-99.99,,,-99.99,,2013-09-25 23:23:00,
2013-09-25 19:34:00,60.0,-99.9,29.89,East,86,6.0,-999.0,-999,-99.99,,,-99.99,,2013-09-25 23:34:00,
2013-09-25 19:42:00,60.0,-99.9,29.89,East,86,6.0,-999.0,-999,-99.99,,,-99.99,,2013-09-25 23:42:00,
2013-09-25 19:53:00,60.0,-99.9,29.89,ESE,108,4.0,-999.0,-999,-99.99,,,-99.99,,2013-09-25 23:53:00,
2013-09-25 20:02:00,60.0,-99.9,29.89,ESE,108,4.0,-999.0,-999,-99.99,,,-99.99,,2013-09-26 00:02:00,
2013-09-25 20:22:00,59.0,-99.9,29.91,ESE,116,3.0,-999.0,-999,-99.99,,,-99.99,,2013-09-26 00:22:00,
2013-09-25 20:32:00,59.0,-99.9,29.91,ESE,116,3.0,-999.0,-999,-99.99,,,-99.99,,2013-09-26 00:32:00,
2013-09-25 20:52:00,59.0,-99.9,29.91,ESE,106,5.0,-999.0,-999,-99.99,,,-99.99,,2013-09-26 00:52:00,
2013-09-25 21:02:00,59.0,-99.9,29.91,ESE,106,5.0,-999.0,-999,-99.99,,,-99.99,,2013-09-26 01:02:00,
2013-09-25 21:23:00,59.0,-99.9,29.91,East,80,3.0,-999.0,-999,-99.99,,,-99.99,,2013-09-26 01:23:00,
2013-09-25 21:32:00,59.0,-99.9,29.91,East,80,3.0,-999.0,-999,-99.99,,,-99.99,,2013-09-26 01:32:00,
2013-09-25 21:42:00,59.0,-99.9,29.91,East,80,3.0,-999.0,-999,-99.99,,,-99.99,,2013-09-26 01:42:00,
2013-09-25 21:52:00,59.0,-99.9,29.92,NE,47,4.0,-999.0,-999,-99.99,,,-99.99,,2013-09-26 01:52:00,
2013-09-25 22:02:00,59.0,-99.9,29.92,NE,47,4.0,-999.0,-999,-99.99,,,-99.99,,2013-09-26 02:02:00,
2013-09-25 22:13:00,59.0,-99.9,29.92,NE,47,4.0,-999.0,-999,-99.99,,,-99.99,,2013-09-26 02:13:00,
2013-09-25 22:22:00,59.0,-99.9,29.93,ENE,71,4.0,-999.0,-999,-99.99,,,-99.99,,2013-09-26 02:22:00,
2013-09-25 22:33:00,59.0,-99.9,29.93,ENE,71,4.0,-999.0,-999,-99.99,,,-99.99,,2013-09-26 02:33:00,
2013-09-25 22:42:00,59.0,-99.9,29.93,ENE,71,4.0,-999.0,-999,-99.99,,,-99.99,,2013-09-26 02:42:00,
2013-09-25 23:23:00,59.0,-99.9,29.93,NNE,31,2.0,-999.0,-999,-99.99,,,-99.99,,2013-09-26 03:23:00,
2013-09-25 23:34:00,59.0,-99.9,29.93,NNE,31,2.0,-999.0,-999,-99.99,,,-99.99,,2013-09-26 03:34:00,
2013-09-25 23:45:00,59.0,-99.9,29.93,NNE,31,2.0,-999.0,-999,-99.99,,,-99.99,,2013-09-26 03:45:00,
2013-09-25 23:55:00,60.0,-99.9,29.94,North,353,2.0,-999.0,-999,-99.99,,,-99.99,,2013-09-26 03:55:00,